| time (UTC) | temp F | wind direction | speed MPH | gust MPH | rain 1hr in | rain 24hr in | rain mn in | humidity % | barometer mb |
| 20260509032228 | 91 | 84 | 2.0 | 3.0 | 0.00 | 0.00 | 0.00 | 63 | 1010.8 |
| 20260509031728 | 90 | 63 | 3.0 | 5.0 | 0.00 | 0.00 | 0.00 | 65 | 1010.8 |
| 20260509031228 | 88 | 72 | 2.0 | 2.0 | 0.00 | 0.00 | 0.00 | 69 | 1010.8 |
| 20260509030727 | 88 | 94 | 1.0 | 3.0 | 0.00 | 0.00 | 0.00 | 71 | 1010.5 |
| 20260509030227 | 88 | 77 | 0.0 | 2.0 | 0.00 | 0.00 | 0.00 | 70 | 1010.8 |
| 20260509025727 | 88 | 108 | 2.0 | 3.0 | 0.00 | 0.00 | 0.00 | 70 | 1010.8 |
| 20260509025229 | 88 | 66 | 3.0 | 3.0 | 0.00 | 0.00 | 0.00 | 70 | 1010.8 |
| 20260509024727 | 88 | 121 | 4.0 | 5.0 | 0.00 | 0.00 | 0.00 | 70 | 1010.8 |
| 20260509024228 | 88 | 110 | 1.0 | 6.0 | 0.00 | 0.00 | 0.00 | 72 | 1010.8 |
| 20260509023727 | 87 | 108 | 0.0 | 2.0 | 0.00 | 0.00 | 0.00 | 74 | 1010.8 |
| 20260509023227 | 87 | 19 | 1.0 | 1.0 | 0.00 | 0.00 | 0.00 | 74 | 1010.8 |
| 20260509022728 | 88 | 122 | 0.0 | 2.0 | 0.00 | 0.00 | 0.00 | 73 | 1010.5 |
| 20260509022229 | 89 | 70 | 0.0 | 2.0 | 0.00 | 0.00 | 0.00 | 72 | 1010.5 |
| 20260509021728 | 88 | 105 | 1.0 | 3.0 | 0.00 | 0.00 | 0.00 | 73 | 1010.5 |
| 20260509021227 | 88 | 71 | 0.0 | 1.0 | 0.00 | 0.00 | 0.00 | 74 | 1010.5 |
| 20260509020727 | 87 | 88 | 0.0 | 2.0 | 0.00 | 0.00 | 0.00 | 75 | 1010.5 |
| 20260509020229 | 87 | 67 | 1.0 | 2.0 | 0.00 | 0.00 | 0.00 | 76 | 1010.2 |
| 20260509015727 | 86 | 312 | 0.0 | 3.0 | 0.00 | 0.00 | 0.00 | 79 | 1010.2 |
| 20260509015227 | 86 | 334 | 1.0 | 2.0 | 0.00 | 0.00 | 0.00 | 78 | 1010.2 |
| 20260509014727 | 85 | 68 | 1.0 | 3.0 | 0.00 | 0.00 | 0.00 | 80 | 1010.2 |
| 20260509014227 | 85 | 340 | 1.0 | 2.0 | 0.00 | 0.00 | 0.00 | 81 | 1010.2 |
| 20260509013727 | 85 | 0 | 2.0 | 3.0 | 0.00 | 0.00 | 0.00 | 80 | 1009.8 |
| 20260509013227 | 84 | 306 | 1.0 | 1.0 | 0.00 | 0.00 | 0.00 | 82 | 1009.8 |
| 20260509012728 | 83 | 323 | 2.0 | 2.0 | 0.00 | 0.00 | 0.00 | 84 | 1009.8 |
| 20260509012227 | 82 | 3 | 1.0 | 2.0 | 0.00 | 0.00 | 0.00 | 85 | 1009.8 |
| 20260509011728 | 82 | 354 | 1.0 | 3.0 | 0.00 | 0.00 | 0.00 | 86 | 1009.5 |
| 20260509011230 | 81 | 54 | 0.0 | 3.0 | 0.00 | 0.00 | 0.00 | 87 | 1009.5 |
| 20260509010729 | 81 | 324 | 0.0 | 2.0 | 0.00 | 0.00 | 0.00 | 88 | 1009.5 |
| 20260509010229 | 81 | 355 | 2.0 | 2.0 | 0.00 | 0.00 | 0.00 | 87 | 1009.1 |
| 20260509005727 | 81 | 321 | 1.0 | 2.0 | 0.00 | 0.00 | 0.00 | 86 | 1009.1 |
| 20260509005228 | 81 | 344 | 0.0 | 1.0 | 0.00 | 0.00 | 0.00 | 87 | 1008.8 |
| 20260509004728 | 81 | 354 | 0.0 | 1.0 | 0.00 | 0.00 | 0.00 | 88 | 1008.8 |
| 20260509004228 | 80 | 353 | 0.0 | 1.0 | 0.00 | 0.00 | 0.00 | 89 | 1008.8 |
| 20260509003727 | 80 | 21 | 1.0 | 1.0 | 0.00 | 0.00 | 0.00 | 89 | 1008.8 |
| 20260509003227 | 80 | 49 | 0.0 | 0.0 | 0.00 | 0.00 | 0.00 | 90 | 1008.5 |
| 20260509002728 | 80 | 49 | 0.0 | 0.0 | 0.00 | 0.00 | 0.00 | 90 | 1008.8 |
| 20260509002229 | 79 | 49 | 0.0 | 0.0 | 0.00 | 0.00 | 0.00 | 90 | 1008.8 |
| 20260509001727 | 79 | 49 | 0.0 | 0.0 | 0.00 | 0.00 | 0.00 | 90 | 1008.5 |
| 20260509001229 | 80 | 49 | 0.0 | 0.0 | 0.00 | 0.00 | 0.00 | 90 | 1008.5 |
| 20260509000727 | 80 | 49 | 0.0 | 0.0 | 0.00 | 0.00 | 0.00 | 89 | 1008.5 |
| 20260509000228 | 80 | 49 | 0.0 | 0.0 | 0.00 | 0.00 | 0.00 | 89 | 1008.5 |
| 20260508235727 | 80 | 49 | 0.0 | 0.0 | 0.00 | 0.00 | 0.00 | 89 | 1008.5 |
| 20260508235227 | 80 | 49 | 0.0 | 0.0 | 0.00 | 0.00 | 0.00 | 89 | 1008.5 |
| 20260508234727 | 80 | 49 | 0.0 | 0.0 | 0.00 | 0.00 | 0.00 | 89 | 1008.5 |
| 20260508234227 | 80 | 49 | 0.0 | 0.0 | 0.00 | 0.00 | 0.00 | 89 | 1008.1 |
| 20260508233727 | 80 | 49 | 0.0 | 0.0 | 0.00 | 0.00 | 0.00 | 89 | 1008.5 |
| 20260508233230 | 80 | 49 | 0.0 | 0.0 | 0.00 | 0.00 | 0.00 | 89 | 1008.5 |
| 20260508232728 | 80 | 49 | 0.0 | 0.0 | 0.00 | 0.00 | 0.00 | 89 | 1008.1 |
| 20260508232228 | 80 | 49 | 0.0 | 0.0 | 0.00 | 0.00 | 0.00 | 89 | 1008.1 |
| 20260508231728 | 80 | 49 | 0.0 | 0.0 | 0.00 | 0.00 | 0.00 | 89 | 1008.5 |
| 20260508231227 | 80 | 49 | 0.0 | 0.0 | 0.00 | 0.00 | 0.00 | 89 | 1008.1 |
| 20260508230728 | 80 | 48 | 0.0 | 0.0 | 0.00 | 0.00 | 0.00 | 88 | 1008.1 |
| 20260508230228 | 80 | 48 | 0.0 | 0.0 | 0.00 | 0.00 | 0.00 | 88 | 1008.1 |
| 20260508225728 | 80 | 48 | 0.0 | 0.0 | 0.00 | 0.00 | 0.00 | 88 | 1008.1 |
| 20260508225230 | 80 | 48 | 0.0 | 0.0 | 0.00 | 0.00 | 0.00 | 88 | 1008.1 |
| 20260508224727 | 80 | 49 | 0.0 | 1.0 | 0.00 | 0.00 | 0.00 | 88 | 1008.1 |
| 20260508224228 | 80 | 52 | 0.0 | 0.0 | 0.00 | 0.00 | 0.00 | 88 | 1008.1 |
| 20260508223729 | 80 | 52 | 0.0 | 0.0 | 0.00 | 0.00 | 0.00 | 88 | 1007.8 |
| 20260508223228 | 80 | 52 | 0.0 | 0.0 | 0.00 | 0.00 | 0.00 | 87 | 1007.8 |
| 20260508222727 | 80 | 52 | 0.0 | 0.0 | 0.00 | 0.00 | 0.00 | 88 | 1008.1 |
| 20260508222227 | 80 | 52 | 1.0 | 1.0 | 0.00 | 0.00 | 0.00 | 87 | 1008.5 |
| 20260508221727 | 80 | 39 | 0.0 | 1.0 | 0.00 | 0.00 | 0.00 | 87 | 1008.1 |
| 20260508221230 | 80 | 40 | 0.0 | 1.0 | 0.00 | 0.00 | 0.00 | 87 | 1008.1 |
| 20260508220727 | 80 | 40 | 0.0 | 1.0 | 0.00 | 0.00 | 0.00 | 87 | 1008.1 |
| 20260508220227 | 80 | 40 | 0.0 | 1.0 | 0.00 | 0.00 | 0.00 | 87 | 1008.1 |
| 20260508215730 | 80 | 342 | 0.0 | 0.0 | 0.00 | 0.00 | 0.00 | 87 | 1008.1 |
| 20260508215228 | 80 | 341 | 1.0 | 2.0 | 0.00 | 0.00 | 0.00 | 87 | 1008.1 |
| 20260508214727 | 80 | 36 | 0.0 | 1.0 | 0.00 | 0.00 | 0.00 | 87 | 1008.1 |
| 20260508214227 | 80 | 36 | 1.0 | 1.0 | 0.00 | 0.00 | 0.00 | 86 | 1008.1 |
| 20260508213727 | 80 | 343 | 0.0 | 0.0 | 0.00 | 0.00 | 0.00 | 86 | 1008.1 |
| 20260508213230 | 80 | 338 | 1.0 | 2.0 | 0.00 | 0.00 | 0.00 | 86 | 1008.1 |
| 20260508212733 | 81 | 327 | 2.0 | 3.0 | 0.00 | 0.00 | 0.00 | 86 | 1008.1 |
| 20260508212228 | 81 | 197 | 0.0 | 0.0 | 0.00 | 0.00 | 0.00 | 86 | 1007.8 |
| 20260508211729 | 81 | 197 | 0.0 | 1.0 | 0.00 | 0.00 | 0.00 | 86 | 1007.8 |
| 20260508211227 | 81 | 197 | 0.0 | 0.0 | 0.00 | 0.00 | 0.00 | 86 | 1007.8 |
| 20260508210728 | 81 | 197 | 0.0 | 0.0 | 0.00 | 0.00 | 0.00 | 85 | 1007.8 |
| 20260508210227 | 81 | 197 | 0.0 | 0.0 | 0.00 | 0.00 | 0.00 | 85 | 1007.8 |
| 20260508205728 | 81 | 197 | 0.0 | 0.0 | 0.00 | 0.00 | 0.00 | 85 | 1007.8 |
| 20260508205227 | 81 | 197 | 0.0 | 1.0 | 0.00 | 0.00 | 0.00 | 84 | 1008.1 |
| 20260508204727 | 81 | 197 | 0.0 | 0.0 | 0.00 | 0.00 | 0.00 | 84 | 1008.5 |
| 20260508204228 | 81 | 198 | 0.0 | 0.0 | 0.00 | 0.00 | 0.00 | 86 | 1008.1 |
| 20260508203727 | 81 | 197 | 0.0 | 0.0 | 0.00 | 0.00 | 0.00 | 86 | 1008.5 |
| 20260508203229 | 81 | 198 | 0.0 | 0.0 | 0.00 | 0.00 | 0.00 | 87 | 1008.5 |
| 20260508202729 | 81 | 198 | 0.0 | 0.0 | 0.00 | 0.00 | 0.00 | 87 | 1008.5 |
| 20260508202227 | 82 | 198 | 0.0 | 0.0 | 0.00 | 0.00 | 0.00 | 87 | 1008.5 |
| 20260508201727 | 82 | 198 | 0.0 | 0.0 | 0.00 | 0.00 | 0.00 | 87 | 1008.8 |
| 20260508201228 | 81 | 198 | 0.0 | 0.0 | 0.00 | 0.00 | 0.00 | 87 | 1008.8 |
| 20260508200727 | 82 | 198 | 0.0 | 0.0 | 0.00 | 0.00 | 0.00 | 87 | 1008.8 |
| 20260508200229 | 82 | 198 | 0.0 | 0.0 | 0.00 | 0.00 | 0.00 | 87 | 1008.8 |
| 20260508195727 | 81 | 198 | 0.0 | 0.0 | 0.00 | 0.00 | 0.00 | 87 | 1008.8 |
| 20260508195230 | 81 | 198 | 0.0 | 0.0 | 0.00 | 0.00 | 0.00 | 86 | 1008.8 |
| 20260508194727 | 81 | 198 | 0.0 | 0.0 | 0.00 | 0.00 | 0.00 | 86 | 1008.8 |
| 20260508194227 | 82 | 198 | 0.0 | 0.0 | 0.00 | 0.00 | 0.00 | 86 | 1008.8 |
| 20260508193727 | 81 | 198 | 0.0 | 0.0 | 0.00 | 0.00 | 0.00 | 86 | 1008.8 |
| 20260508193227 | 81 | 198 | 0.0 | 0.0 | 0.00 | 0.00 | 0.00 | 86 | 1008.8 |
| 20260508192728 | 81 | 198 | 0.0 | 0.0 | 0.00 | 0.00 | 0.00 | 86 | 1008.8 |
| 20260508192229 | 82 | 198 | 0.0 | 0.0 | 0.00 | 0.00 | 0.00 | 86 | 1009.1 |
| 20260508191728 | 82 | 198 | 0.0 | 0.0 | 0.00 | 0.00 | 0.00 | 86 | 1009.1 |
| 20260508191227 | 82 | 198 | 0.0 | 0.0 | 0.00 | 0.00 | 0.00 | 85 | 1009.5 |
| 20260508190727 | 82 | 198 | 0.0 | 0.0 | 0.00 | 0.00 | 0.00 | 85 | 1009.5 |
| 20260508190229 | 82 | 198 | 0.0 | 0.0 | 0.00 | 0.00 | 0.00 | 85 | 1009.5 |
| 20260508185727 | 82 | 198 | 0.0 | 0.0 | 0.00 | 0.00 | 0.00 | 85 | 1009.8 |
| 20260508185229 | 82 | 198 | 0.0 | 0.0 | 0.00 | 0.00 | 0.00 | 85 | 1009.8 |
| 20260508184727 | 82 | 198 | 0.0 | 0.0 | 0.00 | 0.00 | 0.00 | 85 | 1009.5 |
| 20260508184227 | 82 | 198 | 0.0 | 0.0 | 0.00 | 0.00 | 0.00 | 85 | 1009.5 |
| 20260508183728 | 82 | 198 | 0.0 | 0.0 | 0.00 | 0.00 | 0.00 | 85 | 1009.8 |
| 20260508183229 | 82 | 198 | 0.0 | 0.0 | 0.00 | 0.00 | 0.00 | 84 | 1009.8 |
| 20260508182728 | 82 | 198 | 0.0 | 1.0 | 0.00 | 0.00 | 0.00 | 85 | 1009.8 |
| 20260508182229 | 82 | 198 | 0.0 | 0.0 | 0.00 | 0.00 | 0.00 | 85 | 1009.8 |
| 20260508181727 | 82 | 198 | 0.0 | 0.0 | 0.00 | 0.00 | 0.00 | 84 | 1009.5 |
| 20260508181228 | 82 | 198 | 0.0 | 0.0 | 0.00 | 0.00 | 0.00 | 84 | 1009.8 |
| 20260508180734 | 82 | 198 | 0.0 | 0.0 | 0.00 | 0.00 | 0.00 | 84 | 1009.8 |
| 20260508180227 | 82 | 198 | 0.0 | 0.0 | 0.00 | 0.00 | 0.00 | 84 | 1009.8 |
| 20260508175727 | 82 | 198 | 0.0 | 0.0 | 0.00 | 0.00 | 0.00 | 84 | 1009.8 |
| 20260508175228 | 82 | 198 | 0.0 | 1.0 | 0.00 | 0.00 | 0.00 | 84 | 1009.8 |
| 20260508174727 | 82 | 194 | 0.0 | 1.0 | 0.00 | 0.00 | 0.00 | 84 | 1009.5 |
| 20260508174230 | 82 | 194 | 0.0 | 0.0 | 0.00 | 0.00 | 0.00 | 84 | 1009.8 |
| 20260508173728 | 82 | 194 | 0.0 | 0.0 | 0.00 | 0.00 | 0.00 | 84 | 1010.2 |
| 20260508173227 | 82 | 194 | 0.0 | 0.0 | 0.00 | 0.00 | 0.00 | 84 | 1009.8 |
| 20260508172728 | 82 | 194 | 0.0 | 0.0 | 0.00 | 0.00 | 0.00 | 83 | 1010.2 |
| 20260508172228 | 82 | 194 | 0.0 | 0.0 | 0.00 | 0.00 | 0.00 | 83 | 1009.8 |
| 20260508171729 | 83 | 194 | 1.0 | 1.0 | 0.00 | 0.00 | 0.00 | 83 | 1009.8 |
| 20260508171228 | 83 | 175 | 0.0 | 1.0 | 0.00 | 0.00 | 0.00 | 83 | 1009.8 |
| 20260508170730 | 83 | 175 | 0.0 | 0.0 | 0.00 | 0.00 | 0.00 | 83 | 1009.8 |
| 20260508170229 | 82 | 175 | 0.0 | 0.0 | 0.00 | 0.00 | 0.00 | 83 | 1009.5 |
| 20260508165727 | 82 | 175 | 1.0 | 1.0 | 0.00 | 0.00 | 0.00 | 83 | 1009.8 |
| 20260508165228 | 82 | 175 | 0.0 | 1.0 | 0.00 | 0.00 | 0.00 | 83 | 1009.5 |
| 20260508164728 | 82 | 175 | 0.0 | 1.0 | 0.00 | 0.00 | 0.00 | 83 | 1009.5 |
| 20260508164227 | 82 | 156 | 1.0 | 1.0 | 0.00 | 0.00 | 0.00 | 83 | 1009.5 |
| 20260508163727 | 82 | 157 | 0.0 | 1.0 | 0.00 | 0.00 | 0.00 | 83 | 1009.1 |
| 20260508163227 | 82 | 157 | 0.0 | 1.0 | 0.00 | 0.00 | 0.00 | 83 | 1009.5 |
| 20260508162727 | 83 | 148 | 0.0 | 1.0 | 0.00 | 0.00 | 0.00 | 82 | 1009.1 |
| 20260508162227 | 83 | 147 | 0.0 | 0.0 | 0.00 | 0.00 | 0.00 | 82 | 1008.8 |
| 20260508161727 | 83 | 148 | 1.0 | 2.0 | 0.00 | 0.00 | 0.00 | 82 | 1009.1 |
| 20260508161229 | 83 | 104 | 0.0 | 0.0 | 0.00 | 0.00 | 0.00 | 82 | 1009.1 |
| 20260508160730 | 83 | 101 | 0.0 | 0.0 | 0.00 | 0.00 | 0.00 | 81 | 1009.1 |
| 20260508160227 | 84 | 101 | 0.0 | 0.0 | 0.00 | 0.00 | 0.00 | 81 | 1009.1 |
| 20260508155727 | 84 | 101 | 0.0 | 0.0 | 0.00 | 0.00 | 0.00 | 81 | 1008.8 |
| 20260508155230 | 84 | 101 | 0.0 | 0.0 | 0.00 | 0.00 | 0.00 | 80 | 1009.1 |
| 20260508154727 | 84 | 101 | 0.0 | 0.0 | 0.00 | 0.00 | 0.00 | 81 | 1009.1 |
| 20260508154230 | 84 | 101 | 0.0 | 0.0 | 0.00 | 0.00 | 0.00 | 80 | 1009.1 |
| 20260508153727 | 84 | 101 | 0.0 | 0.0 | 0.00 | 0.00 | 0.00 | 80 | 1009.1 |
| 20260508153228 | 84 | 101 | 0.0 | 0.0 | 0.00 | 0.00 | 0.00 | 80 | 1009.1 |
| 20260508152727 | 84 | 101 | 0.0 | 0.0 | 0.00 | 0.00 | 0.00 | 80 | 1009.1 |
| 20260508152227 | 84 | 101 | 0.0 | 0.0 | 0.00 | 0.00 | 0.00 | 80 | 1009.1 |
| 20260508151731 | 84 | 101 | 0.0 | 0.0 | 0.00 | 0.00 | 0.00 | 79 | 1008.8 |
| 20260508151228 | 84 | 101 | 0.0 | 0.0 | 0.00 | 0.00 | 0.00 | 79 | 1009.5 |
| 20260508150728 | 84 | 101 | 0.0 | 0.0 | 0.00 | 0.00 | 0.00 | 79 | 1009.1 |
| 20260508150229 | 84 | 101 | 0.0 | 0.0 | 0.00 | 0.00 | 0.00 | 79 | 1008.8 |
| 20260508145729 | 84 | 102 | 0.0 | 0.0 | 0.00 | 0.00 | 0.00 | 79 | 1009.1 |
| 20260508145227 | 84 | 118 | 1.0 | 1.0 | 0.00 | 0.00 | 0.00 | 79 | 1009.1 |
| 20260508144728 | 84 | 116 | 1.0 | 1.0 | 0.00 | 0.00 | 0.00 | 78 | 1009.1 |
| 20260508144229 | 85 | 104 | 0.0 | 0.0 | 0.00 | 0.00 | 0.00 | 78 | 1009.1 |
| 20260508143730 | 85 | 104 | 0.0 | 1.0 | 0.00 | 0.00 | 0.00 | 78 | 1009.1 |
| 20260508143227 | 85 | 109 | 1.0 | 2.0 | 0.00 | 0.00 | 0.00 | 78 | 1009.1 |
| 20260508142727 | 85 | 113 | 0.0 | 1.0 | 0.00 | 0.00 | 0.00 | 78 | 1009.1 |
| 20260508142227 | 85 | 101 | 2.0 | 2.0 | 0.00 | 0.00 | 0.00 | 77 | 1008.8 |
| 20260508141730 | 85 | 88 | 1.0 | 3.0 | 0.00 | 0.00 | 0.00 | 77 | 1008.8 |
| 20260508141227 | 85 | 102 | 1.0 | 3.0 | 0.00 | 0.00 | 0.00 | 77 | 1008.8 |
| 20260508140728 | 85 | 109 | 1.0 | 2.0 | 0.00 | 0.00 | 0.00 | 77 | 1008.8 |
| 20260508140229 | 85 | 92 | 1.0 | 3.0 | 0.00 | 0.00 | 0.00 | 77 | 1008.8 |
| 20260508135730 | 85 | 118 | 0.0 | 0.0 | 0.00 | 0.00 | 0.00 | 77 | 1008.5 |
| 20260508135227 | 85 | 103 | 1.0 | 3.0 | 0.00 | 0.00 | 0.00 | 77 | 1008.5 |
| 20260508134730 | 85 | 123 | 0.0 | 2.0 | 0.00 | 0.00 | 0.00 | 76 | 1008.5 |
| 20260508134229 | 86 | 121 | 1.0 | 2.0 | 0.00 | 0.00 | 0.00 | 76 | 1008.5 |
| 20260508133729 | 86 | 73 | 3.0 | 3.0 | 0.00 | 0.00 | 0.00 | 75 | 1008.1 |
| 20260508133229 | 86 | 125 | 1.0 | 1.0 | 0.00 | 0.00 | 0.00 | 75 | 1008.5 |
| 20260508132729 | 86 | 103 | 0.0 | 5.0 | 0.00 | 0.00 | 0.00 | 75 | 1008.5 |
| 20260508132227 | 86 | 160 | 0.0 | 3.0 | 0.00 | 0.00 | 0.00 | 75 | 1008.1 |
| 20260508131730 | 86 | 190 | 1.0 | 5.0 | 0.00 | 0.00 | 0.00 | 75 | 1008.1 |
| 20260508131230 | 86 | 88 | 1.0 | 3.0 | 0.00 | 0.00 | 0.00 | 74 | 1008.1 |
| 20260508130728 | 86 | 105 | 2.0 | 5.0 | 0.00 | 0.00 | 0.00 | 74 | 1008.1 |
| 20260508130227 | 86 | 78 | 0.0 | 3.0 | 0.00 | 0.00 | 0.00 | 74 | 1008.1 |
| 20260508125727 | 87 | 85 | 2.0 | 5.0 | 0.00 | 0.00 | 0.00 | 74 | 1008.1 |
| 20260508125229 | 87 | 122 | 1.0 | 2.0 | 0.00 | 0.00 | 0.00 | 73 | 1007.8 |
| 20260508124729 | 87 | 100 | 2.0 | 3.0 | 0.00 | 0.00 | 0.00 | 73 | 1007.8 |
| 20260508124230 | 87 | 122 | 1.0 | 5.0 | 0.00 | 0.00 | 0.00 | 73 | 1007.8 |
| 20260508123728 | 87 | 87 | 2.0 | 7.0 | 0.00 | 0.00 | 0.00 | 72 | 1007.8 |
| 20260508123228 | 88 | 140 | 1.0 | 6.0 | 0.00 | 0.00 | 0.00 | 72 | 1007.8 |
| 20260508122729 | 88 | 135 | 2.0 | 6.0 | 0.00 | 0.00 | 0.00 | 71 | 1007.8 |
| 20260508122227 | 88 | 60 | 1.0 | 3.0 | 0.00 | 0.00 | 0.00 | 71 | 1007.8 |
| 20260508121727 | 88 | 146 | 2.0 | 7.0 | 0.00 | 0.00 | 0.00 | 70 | 1007.8 |
| 20260508121227 | 89 | 209 | 1.0 | 2.0 | 0.00 | 0.00 | 0.00 | 69 | 1007.5 |
| 20260508120729 | 88 | 253 | 1.0 | 5.0 | 0.00 | 0.00 | 0.00 | 69 | 1007.5 |
| 20260508120230 | 89 | 97 | 3.0 | 5.0 | 0.00 | 0.00 | 0.00 | 69 | 1007.5 |
| 20260508115731 | 89 | 106 | 1.0 | 5.0 | 0.00 | 0.00 | 0.00 | 69 | 1007.5 |
| 20260508115227 | 89 | 135 | 2.0 | 7.0 | 0.00 | 0.00 | 0.00 | 68 | 1007.5 |
| 20260508114727 | 89 | 54 | 2.0 | 7.0 | 0.00 | 0.00 | 0.00 | 68 | 1007.5 |
| 20260508114229 | 89 | 169 | 1.0 | 5.0 | 0.00 | 0.00 | 0.00 | 68 | 1007.1 |
| 20260508113727 | 89 | 165 | 1.0 | 8.0 | 0.00 | 0.00 | 0.00 | 68 | 1007.5 |
| 20260508113228 | 90 | 75 | 6.0 | 8.0 | 0.00 | 0.00 | 0.00 | 67 | 1007.5 |
| 20260508112728 | 90 | 156 | 1.0 | 7.0 | 0.00 | 0.00 | 0.00 | 67 | 1007.1 |
| 20260508112231 | 90 | 81 | 1.0 | 3.0 | 0.00 | 0.00 | 0.00 | 66 | 1007.1 |
| 20260508111727 | 91 | 199 | 1.0 | 6.0 | 0.00 | 0.00 | 0.00 | 66 | 1007.1 |
| 20260508111227 | 90 | 91 | 0.0 | 2.0 | 0.00 | 0.00 | 0.00 | 66 | 1007.1 |
| 20260508110729 | 90 | 114 | 1.0 | 5.0 | 0.00 | 0.00 | 0.00 | 66 | 1007.1 |
| 20260508110227 | 90 | 49 | 3.0 | 8.0 | 0.00 | 0.00 | 0.00 | 66 | 1007.1 |
| 20260508105730 | 91 | 175 | 4.0 | 8.0 | 0.00 | 0.00 | 0.00 | 65 | 1007.1 |
| 20260508105229 | 91 | 93 | 1.0 | 3.0 | 0.00 | 0.00 | 0.00 | 62 | 1007.1 |
| 20260508104728 | 91 | 114 | 3.0 | 7.0 | 0.00 | 0.00 | 0.00 | 62 | 1007.1 |
| 20260508104227 | 91 | 177 | 3.0 | 10.0 | 0.00 | 0.00 | 0.00 | 61 | 1007.1 |
| 20260508103728 | 92 | 185 | 3.0 | 7.0 | 0.00 | 0.00 | 0.00 | 60 | 1007.1 |
| 20260508103227 | 93 | 136 | 1.0 | 6.0 | 0.00 | 0.00 | 0.00 | 59 | 1007.1 |
| 20260508102727 | 93 | 131 | 4.0 | 6.0 | 0.00 | 0.00 | 0.00 | 59 | 1007.1 |
| 20260508102229 | 93 | 106 | 4.0 | 6.0 | 0.00 | 0.00 | 0.00 | 59 | 1007.1 |
| 20260508101727 | 92 | 69 | 1.0 | 8.0 | 0.00 | 0.00 | 0.00 | 61 | 1007.5 |
| 20260508101227 | 93 | 95 | 5.0 | 9.0 | 0.00 | 0.00 | 0.00 | 59 | 1007.5 |
| 20260508100729 | 93 | 115 | 2.0 | 6.0 | 0.00 | 0.00 | 0.00 | 59 | 1007.5 |
| 20260508100231 | 93 | 179 | 3.0 | 5.0 | 0.00 | 0.00 | 0.00 | 58 | 1007.5 |
| 20260508095730 | 93 | 175 | 2.0 | 8.0 | 0.00 | 0.00 | 0.00 | 58 | 1007.5 |
| 20260508095229 | 94 | 125 | 5.0 | 9.0 | 0.00 | 0.00 | 0.00 | 57 | 1007.5 |
| 20260508094728 | 94 | 114 | 1.0 | 8.0 | 0.00 | 0.00 | 0.00 | 56 | 1007.5 |
| 20260508094228 | 94 | 96 | 2.0 | 5.0 | 0.00 | 0.00 | 0.00 | 56 | 1007.5 |
| 20260508093730 | 95 | 111 | 8.0 | 10.0 | 0.00 | 0.00 | 0.00 | 56 | 1007.1 |
| 20260508093229 | 95 | 101 | 3.0 | 8.0 | 0.00 | 0.00 | 0.00 | 56 | 1007.5 |
| 20260508092730 | 95 | 123 | 7.0 | 11.0 | 0.00 | 0.00 | 0.00 | 56 | 1007.5 |
| 20260508092227 | 95 | 124 | 2.0 | 10.0 | 0.00 | 0.00 | 0.00 | 57 | 1007.5 |
| 20260508091728 | 96 | 150 | 3.0 | 10.0 | 0.00 | 0.00 | 0.00 | 54 | 1007.5 |
| 20260508091229 | 96 | 103 | 3.0 | 7.0 | 0.00 | 0.00 | 0.00 | 55 | 1007.1 |
| 20260508090727 | 96 | 98 | 3.0 | 8.0 | 0.00 | 0.00 | 0.00 | 54 | 1007.5 |
| 20260508090229 | 96 | 108 | 3.0 | 7.0 | 0.00 | 0.00 | 0.00 | 54 | 1007.1 |
| 20260508085727 | 96 | 211 | 7.0 | 11.0 | 0.00 | 0.00 | 0.00 | 55 | 1007.5 |
| 20260508085228 | 96 | 150 | 6.0 | 9.0 | 0.00 | 0.00 | 0.00 | 54 | 1007.5 |
| 20260508084728 | 98 | 130 | 3.0 | 9.0 | 0.00 | 0.00 | 0.00 | 53 | 1007.5 |
| 20260508084228 | 97 | 125 | 4.0 | 6.0 | 0.00 | 0.00 | 0.00 | 51 | 1007.5 |
| 20260508083728 | 97 | 196 | 4.0 | 13.0 | 0.00 | 0.00 | 0.00 | 51 | 1007.5 |
| 20260508083227 | 96 | 100 | 2.0 | 8.0 | 0.00 | 0.00 | 0.00 | 52 | 1007.5 |
| 20260508082729 | 97 | 126 | 5.0 | 9.0 | 0.00 | 0.00 | 0.00 | 50 | 1007.5 |
| 20260508082230 | 97 | 49 | 4.0 | 8.0 | 0.00 | 0.00 | 0.00 | 49 | 1007.8 |
| 20260508081729 | 96 | 101 | 5.0 | 7.0 | 0.00 | 0.00 | 0.00 | 51 | 1007.5 |
| 20260508081230 | 96 | 184 | 3.0 | 7.0 | 0.00 | 0.00 | 0.00 | 51 | 1008.1 |
| 20260508080727 | 96 | 95 | 4.0 | 9.0 | 0.00 | 0.00 | 0.00 | 54 | 1008.1 |
| 20260508080228 | 95 | 125 | 1.0 | 8.0 | 0.00 | 0.00 | 0.00 | 54 | 1008.1 |
| 20260508075728 | 95 | 113 | 2.0 | 9.0 | 0.00 | 0.00 | 0.00 | 58 | 1008.1 |
| 20260508075228 | 95 | 233 | 2.0 | 7.0 | 0.00 | 0.00 | 0.00 | 56 | 1008.5 |
| 20260508074729 | 95 | 94 | 2.0 | 10.0 | 0.00 | 0.00 | 0.00 | 56 | 1008.5 |
| 20260508074227 | 95 | 116 | 2.0 | 7.0 | 0.00 | 0.00 | 0.00 | 56 | 1008.5 |
| 20260508073727 | 96 | 62 | 5.0 | 8.0 | 0.00 | 0.00 | 0.00 | 55 | 1008.5 |
| 20260508073227 | 96 | 251 | 2.0 | 9.0 | 0.00 | 0.00 | 0.00 | 56 | 1008.5 |
| 20260508072728 | 97 | 139 | 5.0 | 7.0 | 0.00 | 0.00 | 0.00 | 53 | 1008.5 |
| 20260508072227 | 97 | 79 | 4.0 | 8.0 | 0.00 | 0.00 | 0.00 | 53 | 1008.5 |
| 20260508071727 | 97 | 77 | 3.0 | 6.0 | 0.00 | 0.00 | 0.00 | 53 | 1008.8 |
| 20260508071229 | 97 | 119 | 3.0 | 9.0 | 0.00 | 0.00 | 0.00 | 53 | 1008.8 |
| 20260508070727 | 96 | 109 | 5.0 | 9.0 | 0.00 | 0.00 | 0.00 | 53 | 1009.1 |
| 20260508070234 | 96 | 65 | 2.0 | 7.0 | 0.00 | 0.00 | 0.00 | 54 | 1009.5 |
| 20260508065727 | 97 | 85 | 2.0 | 5.0 | 0.00 | 0.00 | 0.00 | 53 | 1009.1 |
| 20260508065229 | 96 | 105 | 1.0 | 13.0 | 0.00 | 0.00 | 0.00 | 55 | 1009.1 |
| 20260508064728 | 96 | 103 | 3.0 | 9.0 | 0.00 | 0.00 | 0.00 | 56 | 1009.5 |
| 20260508064228 | 97 | 110 | 3.0 | 3.0 | 0.00 | 0.00 | 0.00 | 54 | 1009.5 |
| 20260508063728 | 95 | 72 | 4.0 | 6.0 | 0.00 | 0.00 | 0.00 | 57 | 1009.5 |
| 20260508063227 | 94 | 157 | 0.0 | 7.0 | 0.00 | 0.00 | 0.00 | 59 | 1009.5 |
| 20260508062727 | 96 | 119 | 3.0 | 9.0 | 0.00 | 0.00 | 0.00 | 57 | 1009.5 |
| 20260508062227 | 96 | 126 | 4.0 | 6.0 | 0.00 | 0.00 | 0.00 | 55 | 1009.1 |
| 20260508061727 | 95 | 119 | 3.0 | 6.0 | 0.00 | 0.00 | 0.00 | 55 | 1009.5 |
| 20260508061227 | 95 | 100 | 4.0 | 7.0 | 0.00 | 0.00 | 0.00 | 56 | 1009.5 |
| 20260508060727 | 95 | 162 | 2.0 | 7.0 | 0.00 | 0.00 | 0.00 | 58 | 1009.5 |
| 20260508060230 | 94 | 99 | 1.0 | 2.0 | 0.00 | 0.00 | 0.00 | 60 | 1009.5 |
| 20260508055727 | 95 | 141 | 1.0 | 7.0 | 0.00 | 0.00 | 0.00 | 60 | 1009.5 |
| 20260508055229 | 94 | 76 | 3.0 | 10.0 | 0.00 | 0.00 | 0.00 | 60 | 1009.5 |
| 20260508054728 | 94 | 172 | 1.0 | 9.0 | 0.00 | 0.00 | 0.00 | 60 | 1009.5 |
| 20260508054227 | 95 | 94 | 1.0 | 7.0 | 0.00 | 0.00 | 0.00 | 60 | 1009.5 |
| 20260508053727 | 96 | 213 | 1.0 | 5.0 | 0.00 | 0.00 | 0.00 | 55 | 1009.5 |
| 20260508053228 | 96 | 66 | 3.0 | 6.0 | 0.00 | 0.00 | 0.00 | 54 | 1009.8 |
| 20260508052728 | 96 | 142 | 6.0 | 8.0 | 0.00 | 0.00 | 0.00 | 54 | 1009.5 |
| 20260508052229 | 97 | 154 | 3.0 | 9.0 | 0.00 | 0.00 | 0.00 | 54 | 1009.8 |
| 20260508051728 | 96 | 158 | 1.0 | 6.0 | 0.00 | 0.00 | 0.00 | 55 | 1009.8 |
| 20260508051227 | 95 | 129 | 1.0 | 7.0 | 0.00 | 0.00 | 0.00 | 55 | 1009.8 |
| 20260508050727 | 94 | 65 | 3.0 | 5.0 | 0.00 | 0.00 | 0.00 | 56 | 1010.2 |
| 20260508050227 | 95 | 96 | 4.0 | 6.0 | 0.00 | 0.00 | 0.00 | 57 | 1010.2 |
| 20260508045728 | 96 | 109 | 5.0 | 7.0 | 0.00 | 0.00 | 0.00 | 54 | 1009.8 |
| 20260508045227 | 96 | 101 | 1.0 | 5.0 | 0.00 | 0.00 | 0.00 | 55 | 1009.8 |
| 20260508044727 | 95 | 93 | 1.0 | 2.0 | 0.00 | 0.00 | 0.00 | 55 | 1010.2 |
| 20260508044234 | 95 | 117 | 2.0 | 3.0 | 0.00 | 0.00 | 0.00 | 57 | 1010.2 |
| 20260508043727 | 95 | 79 | 1.0 | 5.0 | 0.00 | 0.00 | 0.00 | 59 | 1010.2 |
| 20260508043227 | 95 | 14 | 2.0 | 5.0 | 0.00 | 0.00 | 0.00 | 58 | 1010.2 |
| 20260508042728 | 94 | 218 | 1.0 | 2.0 | 0.00 | 0.00 | 0.00 | 59 | 1010.2 |
| 20260508042227 | 95 | 73 | 1.0 | 7.0 | 0.00 | 0.00 | 0.00 | 58 | 1010.2 |
| 20260508041727 | 95 | 94 | 3.0 | 6.0 | 0.00 | 0.00 | 0.00 | 56 | 1010.2 |
| 20260508041227 | 94 | 81 | 2.0 | 3.0 | 0.00 | 0.00 | 0.00 | 59 | 1010.2 |
| 20260508040727 | 93 | 17 | 2.0 | 3.0 | 0.00 | 0.00 | 0.00 | 59 | 1010.2 |
| 20260508040228 | 92 | 96 | 1.0 | 1.0 | 0.00 | 0.00 | 0.00 | 65 | 1010.2 |
| 20260508035729 | 92 | 70 | 1.0 | 3.0 | 0.00 | 0.00 | 0.00 | 65 | 1010.2 |
| 20260508035228 | 92 | 32 | 1.0 | 2.0 | 0.00 | 0.00 | 0.00 | 64 | 1010.5 |
| 20260508034729 | 91 | 104 | 3.0 | 7.0 | 0.00 | 0.00 | 0.00 | 66 | 1010.2 |
| 20260508034227 | 93 | 113 | 1.0 | 7.0 | 0.00 | 0.00 | 0.00 | 64 | 1010.2 |
| 20260508033728 | 93 | 67 | 1.0 | 2.0 | 0.00 | 0.00 | 0.00 | 63 | 1010.2 |
| 20260508033228 | 93 | 101 | 4.0 | 7.0 | 0.00 | 0.00 | 0.00 | 63 | 1010.2 |
| 20260508032727 | 91 | 63 | 1.0 | 3.0 | 0.00 | 0.00 | 0.00 | 64 | 1010.2 |